Voltar ao catálogo

SS-18 R/B

AtivoLEO
NORAD 25695·ROCKET BODY·🇷🇺 Russia

Lançado Apr 21, 1999 de Baikonur Cosmodrome

Loading…

Próximas Passagens (próximas 24 horas)

TLE

AtualizadoSource: Space-Track

Época: Sep 14, 2026, 19:48 UTC

1 25695U 99021C   26257.82530186  .00000073  00000-0  62077-4 0  9999
2 25695  64.5525 284.7071 0569993 287.9229  66.0485 13.73083154372281

Acompanhe SS-18 R/B em tempo real com AllMySat

Download on the App Store